DLH400 EDDF-KJFK

Flight info

Callsign DLH400
Flight time N/A
Altitude 38000
Route OBOKA3M/25C OBOKA Z29 TORNU DCT VICOT DCT GALSO Q63 ERING L179 UGBET Q60 OKSAW DCT BIBPE DCT TIGWE DCT FELCA DCT FADZU DCT NICXI DCT OFSOX DCT SLANY DCT DIMUS DCT MALOT/M082F390 DCT 54N020W 54N030W 54N040W 53N050W DCT RIKAL/N0481F400 N572A TOPPS DCT ENE PARCH4
Aircraft A346/H-SDE2E3FGHIJ3J4J5M1P2RWXYZ/LB1D1

Departure

Time 2026-05-04 20:09
Airport Frankfurt Main Airport (EDDF)

Arrival

Time N/A
Airport John F. Kennedy International Airport (KJFK)
Time Latitude Longitude Altitude Speed Heading
2026-05-04 17:15 50.04540 8.56756 371 ft 0 kts 295°
2026-05-04 17:16 50.04542 8.56750 371 ft 0 kts 295°
2026-05-04 19:54 50.04535 8.56774 366 ft 4 kts 294°
2026-05-04 19:54 50.04529 8.56804 369 ft 4 kts 262°
2026-05-04 19:54 50.04534 8.56836 371 ft 4 kts 252°
2026-05-04 19:55 50.04544 8.56872 372 ft 4 kts 235°
2026-05-04 19:55 50.04558 8.56893 372 ft 4 kts 201°
2026-05-04 19:55 50.04556 8.56893 369 ft 4 kts 193°
2026-05-04 19:55 50.04548 8.56891 371 ft 0 kts 193°
2026-05-04 20:01 50.04547 8.56890 340 ft 0 kts 193°
2026-05-04 20:01 50.04540 8.56887 367 ft 2 kts 193°
2026-05-04 20:01 50.04514 8.56878 367 ft 5 kts 193°
2026-05-04 20:01 50.04471 8.56862 372 ft 8 kts 192°
2026-05-04 20:02 50.04410 8.56846 371 ft 10 kts 189°
2026-05-04 20:02 50.04391 8.56841 371 ft 0 kts 189°
2026-05-04 20:02 50.04373 8.56836 368 ft 6 kts 191°
2026-05-04 20:03 50.04319 8.56822 370 ft 9 kts 178°
2026-05-04 20:03 50.04281 8.56895 368 ft 11 kts 85°
2026-05-04 20:03 50.04304 8.57026 369 ft 13 kts 70°
2026-05-04 20:03 50.04337 8.57163 372 ft 14 kts 69°
2026-05-04 20:04 50.04374 8.57314 372 ft 16 kts 69°
2026-05-04 20:04 50.04414 8.57480 373 ft 18 kts 70°
2026-05-04 20:04 50.04458 8.57668 376 ft 19 kts 69°
2026-05-04 20:04 50.04501 8.57844 377 ft 17 kts 69°
2026-05-04 20:05 50.04541 8.58010 376 ft 17 kts 69°
2026-05-04 20:05 50.04583 8.58185 377 ft 18 kts 70°
2026-05-04 20:05 50.04621 8.58346 379 ft 9 kts 70°
2026-05-04 20:05 50.04632 8.58394 379 ft 0 kts 70°
2026-05-04 20:07 50.04635 8.58405 378 ft 3 kts 70°
2026-05-04 20:07 50.04649 8.58467 380 ft 8 kts 75°
2026-05-04 20:07 50.04630 8.58552 380 ft 10 kts 137°
2026-05-04 20:07 50.04568 8.58602 382 ft 11 kts 158°
2026-05-04 20:08 50.04497 8.58604 382 ft 11 kts 215°
2026-05-04 20:08 50.04460 8.58486 379 ft 12 kts 255°
2026-05-04 20:08 50.04435 8.58375 380 ft 12 kts 249°
2026-05-04 20:08 50.04363 8.58075 378 ft 65 kts 250°
2026-05-04 20:09 50.04105 8.56995 375 ft 145 kts 249°
2026-05-04 20:09 50.03682 8.55194 413 ft 203 kts 251°
2026-05-04 20:09 50.03195 8.53054 1165 ft 210 kts 251°
2026-05-04 20:09 50.02688 8.51003 2100 ft 202 kts 244°
2026-05-04 20:10 50.01743 8.49409 2862 ft 206 kts 208°
2026-05-04 20:10 50.00372 8.48700 3580 ft 209 kts 194°
2026-05-04 20:10 49.98959 8.48162 4357 ft 210 kts 193°
2026-05-04 20:10 49.97542 8.47627 5125 ft 210 kts 193°
2026-05-04 20:11 49.96127 8.47079 5889 ft 209 kts 195°
2026-05-04 20:11 49.94703 8.46463 6474 ft 219 kts 196°
2026-05-04 20:11 49.93183 8.45763 6842 ft 237 kts 197°
2026-05-04 20:11 49.91650 8.44660 7327 ft 249 kts 218°
2026-05-04 20:12 49.90521 8.42628 8164 ft 250 kts 236°
2026-05-04 20:12 49.89627 8.40321 9046 ft 249 kts 237°
2026-05-04 20:12 49.88848 8.37899 9839 ft 254 kts 250°
2026-05-04 20:12 49.88575 8.35181 10436 ft 266 kts 268°
2026-05-04 20:13 49.88689 8.32232 10860 ft 281 kts 272°
2026-05-04 20:13 49.88901 8.29124 11226 ft 299 kts 277°
2026-05-04 20:13 49.89529 8.25934 11536 ft 320 kts 291°
2026-05-04 20:13 49.90710 8.22877 11844 ft 340 kts 302°
2026-05-04 20:14 49.92162 8.19852 12171 ft 358 kts 305°
2026-05-04 20:14 49.93793 8.16808 12453 ft 376 kts 309°
2026-05-04 20:14 49.95671 8.13841 12861 ft 391 kts 314°
2026-05-04 20:14 49.97705 8.11057 13548 ft 397 kts 317°
2026-05-04 20:15 49.99813 8.08264 14294 ft 400 kts 317°
2026-05-04 20:15 50.01948 8.05447 14975 ft 404 kts 317°
2026-05-04 20:15 50.04093 8.02600 15654 ft 407 kts 316°
2026-05-04 20:15 50.06244 7.99731 16332 ft 410 kts 316°
2026-05-04 20:16 50.08421 7.96818 17006 ft 414 kts 316°
2026-05-04 20:16 50.10610 7.93878 17671 ft 417 kts 316°
2026-05-04 20:16 50.12818 7.90909 18331 ft 421 kts 316°
2026-05-04 20:16 50.15045 7.87908 18890 ft 425 kts 316°
2026-05-04 20:17 50.17261 7.84916 19434 ft 428 kts 316°
2026-05-04 20:17 50.19521 7.81862 20007 ft 432 kts 316°
2026-05-04 20:17 50.21800 7.78774 20591 ft 435 kts 316°
2026-05-04 20:17 50.24174 7.75798 21163 ft 439 kts 321°
2026-05-04 20:18 50.26748 7.73185 21750 ft 445 kts 327°
2026-05-04 20:18 50.29517 7.70965 22293 ft 450 kts 333°
2026-05-04 20:18 50.32393 7.68971 22827 ft 453 kts 334°
2026-05-04 20:18 50.35304 7.67020 23366 ft 457 kts 334°
2026-05-04 20:19 50.38197 7.65074 23818 ft 460 kts 334°
2026-05-04 20:19 50.41144 7.63066 24252 ft 463 kts 334°
2026-05-04 20:19 50.44108 7.61033 24684 ft 467 kts 334°
2026-05-04 20:19 50.47094 7.58975 25098 ft 470 kts 334°
2026-05-04 20:20 50.50100 7.56900 25506 ft 474 kts 334°
2026-05-04 20:20 50.53118 7.54762 25931 ft 476 kts 332°
2026-05-04 20:20 50.56075 7.52386 26339 ft 479 kts 328°
2026-05-04 20:20 50.58958 7.49736 26733 ft 480 kts 325°
2026-05-04 20:21 50.61746 7.46939 27137 ft 483 kts 324°
2026-05-04 20:21 50.64576 7.44030 27524 ft 487 kts 322°
2026-05-04 20:21 50.70251 7.38078 28408 ft 488 kts 319°
2026-05-04 20:22 50.72815 7.34645 29000 ft 482 kts 310°
2026-05-04 20:22 50.75046 7.30729 29569 ft 475 kts 302°
2026-05-04 20:22 50.76895 7.26443 30122 ft 469 kts 295°
2026-05-04 20:22 50.78438 7.21917 30597 ft 466 kts 291°
2026-05-04 20:23 50.79898 7.17363 31128 ft 463 kts 291°
2026-05-04 20:23 50.81343 7.12819 31694 ft 460 kts 291°
2026-05-04 20:23 50.82764 7.08376 32269 ft 457 kts 291°
2026-05-04 20:23 50.84203 7.03903 32852 ft 454 kts 291°
2026-05-04 20:24 50.85637 6.99458 33376 ft 452 kts 291°
2026-05-04 20:24 50.87065 6.95031 33851 ft 451 kts 291°
2026-05-04 20:24 50.88488 6.90608 34295 ft 449 kts 291°
2026-05-04 20:24 50.89906 6.86187 34644 ft 448 kts 291°
2026-05-04 20:25 50.91321 6.81769 34982 ft 448 kts 291°
2026-05-04 20:25 50.92733 6.77356 35302 ft 449 kts 291°
2026-05-04 20:25 50.94146 6.72932 35608 ft 449 kts 291°
2026-05-04 20:25 50.95538 6.68570 35902 ft 449 kts 292°
2026-05-04 20:26 50.96948 6.64148 36207 ft 449 kts 292°
2026-05-04 20:26 50.98361 6.59705 36452 ft 450 kts 292°
2026-05-04 20:26 50.99781 6.55229 36670 ft 452 kts 292°
2026-05-04 20:26 51.01198 6.50762 36849 ft 454 kts 292°
2026-05-04 20:27 51.02619 6.46271 37061 ft 456 kts 292°
2026-05-04 20:27 51.04045 6.41761 37269 ft 457 kts 292°
2026-05-04 20:27 51.05473 6.37232 37468 ft 458 kts 292°
2026-05-04 20:27 51.06880 6.32763 37666 ft 459 kts 292°
2026-05-04 20:28 51.08313 6.28207 37853 ft 460 kts 292°
2026-05-04 20:28 51.09744 6.23640 37965 ft 462 kts 292°
2026-05-04 20:28 51.12530 6.14420 37973 ft 461 kts 289°
2026-05-04 20:29 51.14747 6.04880 37966 ft 458 kts 283°
2026-05-04 20:29 51.16421 5.95097 37964 ft 457 kts 281°
2026-05-04 20:30 51.17997 5.85350 37959 ft 457 kts 281°
2026-05-04 20:30 51.19657 5.75555 37966 ft 457 kts 282°
2026-05-04 20:31 51.21379 5.65768 37961 ft 458 kts 282°
2026-05-04 20:31 51.23095 5.55946 37957 ft 459 kts 282°
2026-05-04 20:32 51.24787 5.46186 37955 ft 459 kts 282°
2026-05-04 20:32 51.26480 5.36345 37952 ft 459 kts 282°
2026-05-04 20:33 51.28164 5.26499 37954 ft 459 kts 282°
2026-05-04 20:33 51.29840 5.16628 37957 ft 461 kts 282°
2026-05-04 20:34 51.31503 5.06796 37960 ft 461 kts 282°
2026-05-04 20:34 51.33168 4.96897 37963 ft 461 kts 282°
2026-05-04 20:35 51.34826 4.86982 37965 ft 461 kts 282°
2026-05-04 20:35 51.36475 4.77056 37981 ft 461 kts 282°
2026-05-04 20:36 51.38116 4.67107 37969 ft 462 kts 282°
2026-05-04 20:36 51.39744 4.57207 37967 ft 462 kts 282°
2026-05-04 20:37 51.41372 4.47240 37969 ft 462 kts 282°
2026-05-04 20:37 51.42994 4.37253 37969 ft 462 kts 282°
2026-05-04 20:38 51.44607 4.27267 37955 ft 462 kts 282°
2026-05-04 20:38 51.46199 4.17340 37968 ft 462 kts 282°
2026-05-04 20:39 51.47931 4.07397 37969 ft 463 kts 285°
2026-05-04 20:39 51.50266 3.97728 37973 ft 466 kts 291°
2026-05-04 20:40 51.52985 3.88284 37977 ft 465 kts 292°
2026-05-04 20:40 51.55696 3.78929 37979 ft 464 kts 292°
2026-05-04 20:41 51.58412 3.69509 37978 ft 464 kts 292°
2026-05-04 20:41 51.61117 3.60078 37979 ft 464 kts 292°
2026-05-04 20:42 51.63813 3.50633 37981 ft 464 kts 292°
2026-05-04 20:42 51.66502 3.41176 37985 ft 464 kts 292°
2026-05-04 20:43 51.69155 3.31760 37989 ft 464 kts 290°
2026-05-04 20:43 51.71152 3.21909 37996 ft 461 kts 280°
2026-05-04 20:44 51.72059 3.11716 37999 ft 458 kts 271°
2026-05-04 20:44 51.71878 3.01479 38010 ft 455 kts 261°
2026-05-04 20:45 51.71040 2.91417 38012 ft 455 kts 260°
2026-05-04 20:45 51.70153 2.81291 38011 ft 456 kts 260°
2026-05-04 20:46 51.69261 2.71150 38008 ft 456 kts 260°
2026-05-04 20:46 51.68363 2.61023 38009 ft 456 kts 260°
2026-05-04 20:47 51.67465 2.50962 38010 ft 456 kts 260°
2026-05-04 20:47 51.66553 2.40844 38022 ft 456 kts 260°
2026-05-04 20:48 51.65630 2.30710 38020 ft 457 kts 260°
2026-05-04 20:48 51.64699 2.20578 38016 ft 457 kts 260°
2026-05-04 20:49 51.63766 2.10520 38024 ft 457 kts 260°
2026-05-04 20:49 51.62818 2.00398 38024 ft 457 kts 259°
2026-05-04 20:50 51.61862 1.90288 38031 ft 457 kts 259°
2026-05-04 20:50 51.60897 1.80160 38029 ft 457 kts 259°
2026-05-04 20:51 51.59939 1.70099 38032 ft 458 kts 261°
2026-05-04 20:51 51.59409 1.59883 38030 ft 459 kts 266°
2026-05-04 20:52 51.59535 1.49595 38036 ft 460 kts 271°
2026-05-04 20:52 51.59986 1.39309 38041 ft 460 kts 272°
2026-05-04 20:53 51.60432 1.29014 38040 ft 461 kts 272°
2026-05-04 20:53 51.60857 1.18772 38039 ft 461 kts 272°
2026-05-04 20:54 51.61269 1.08462 38039 ft 461 kts 272°
2026-05-04 20:54 51.61672 0.98155 38040 ft 461 kts 271°
2026-05-04 20:55 51.62065 0.87831 38049 ft 462 kts 272°
2026-05-04 20:55 51.62452 0.77549 38047 ft 463 kts 272°
2026-05-04 20:56 51.62831 0.67168 38047 ft 463 kts 272°
2026-05-04 20:56 51.63200 0.56813 38049 ft 463 kts 271°
2026-05-04 20:57 51.63561 0.46454 38049 ft 463 kts 271°
2026-05-04 20:57 51.63910 0.36139 38043 ft 465 kts 271°
2026-05-04 20:58 51.64253 0.25733 38044 ft 465 kts 271°
2026-05-04 20:58 51.64221 0.15327 38044 ft 464 kts 265°
2026-05-04 20:59 51.63491 0.05015 38046 ft 463 kts 259°
2026-05-04 20:59 51.62541 -0.05271 38044 ft 464 kts 263°
2026-05-04 21:00 51.62192 -0.15607 38044 ft 466 kts 269°
2026-05-04 21:00 51.62523 -0.26053 38051 ft 467 kts 274°
2026-05-04 21:01 51.63157 -0.36471 38019 ft 467 kts 274°
2026-05-04 21:01 51.63792 -0.46892 38019 ft 467 kts 274°
2026-05-04 21:02 51.64309 -0.55561 38020 ft 467 kts 274°
2026-05-04 21:02 51.65018 -0.67684 38022 ft 467 kts 274°
2026-05-04 21:03 51.65617 -0.78115 38021 ft 467 kts 274°
2026-05-04 21:03 51.66206 -0.88545 38027 ft 467 kts 274°
2026-05-04 21:04 51.66689 -0.97221 38059 ft 467 kts 274°
2026-05-04 21:04 51.67356 -1.09397 38046 ft 470 kts 274°
2026-05-04 21:05 51.67921 -1.19907 38052 ft 470 kts 274°
2026-05-04 21:05 51.68384 -1.28649 38049 ft 470 kts 274°
2026-05-04 21:06 51.68933 -1.39168 38050 ft 470 kts 274°
2026-05-04 21:06 51.69472 -1.49689 38047 ft 471 kts 274°
2026-05-04 21:07 51.70004 -1.60257 38048 ft 472 kts 273°
2026-05-04 21:07 51.70572 -1.70747 38040 ft 472 kts 275°
2026-05-04 21:08 51.71334 -1.81288 38048 ft 473 kts 275°
2026-05-04 21:08 51.72096 -1.91829 38048 ft 472 kts 275°
2026-05-04 21:09 51.72840 -2.02370 38053 ft 473 kts 275°
2026-05-04 21:09 51.73579 -2.12931 38059 ft 473 kts 275°
2026-05-04 21:10 51.74326 -2.23759 38053 ft 473 kts 275°
2026-05-04 21:10 51.75047 -2.34335 38046 ft 473 kts 275°
2026-05-04 21:11 51.75756 -2.44905 38048 ft 473 kts 275°
2026-05-04 21:11 51.76458 -2.55499 38051 ft 474 kts 275°
2026-05-04 21:12 51.77147 -2.66023 38045 ft 474 kts 275°
2026-05-04 21:12 51.77829 -2.76629 38049 ft 474 kts 275°
2026-05-04 21:13 51.78500 -2.87212 38043 ft 473 kts 275°
2026-05-04 21:13 51.79162 -2.97794 38047 ft 473 kts 275°
2026-05-04 21:14 51.79815 -3.08313 38046 ft 474 kts 275°
2026-05-04 21:14 51.80460 -3.18923 38046 ft 474 kts 275°
2026-05-04 21:15 51.81095 -3.29533 38047 ft 474 kts 275°
2026-05-04 21:15 51.81720 -3.40146 38051 ft 474 kts 275°
2026-05-04 21:16 51.82357 -3.50785 38054 ft 475 kts 277°
2026-05-04 21:16 51.83455 -3.61277 38048 ft 476 kts 282°
2026-05-04 21:17 51.84820 -3.71763 38050 ft 476 kts 282°
2026-05-04 21:17 51.86182 -3.82248 38055 ft 476 kts 282°
2026-05-04 21:18 51.87528 -3.92761 38052 ft 477 kts 282°
2026-05-04 21:18 51.88854 -4.03226 38047 ft 477 kts 282°
2026-05-04 21:19 51.90179 -4.13787 38048 ft 478 kts 282°
2026-05-04 21:19 51.91498 -4.24372 38059 ft 478 kts 281°
2026-05-04 21:20 51.92807 -4.34942 38059 ft 477 kts 281°
2026-05-04 21:20 51.94096 -4.45455 38057 ft 479 kts 281°
2026-05-04 21:21 51.95390 -4.56065 38061 ft 479 kts 281°
2026-05-04 21:21 51.96670 -4.66660 38051 ft 478 kts 282°
2026-05-04 21:22 51.97942 -4.77270 38057 ft 479 kts 281°
2026-05-04 21:22 51.99201 -4.87823 38067 ft 479 kts 281°
2026-05-04 21:23 52.00449 -4.98429 38067 ft 479 kts 281°
2026-05-04 21:23 52.01695 -5.09070 38068 ft 480 kts 281°
2026-05-04 21:24 52.03066 -5.19670 38070 ft 479 kts 285°
2026-05-04 21:24 52.05001 -5.30000 38079 ft 478 kts 289°
2026-05-04 21:25 52.07072 -5.40206 38068 ft 479 kts 289°
2026-05-04 21:25 52.09156 -5.50513 38078 ft 478 kts 289°
2026-05-04 21:26 52.11216 -5.60808 38083 ft 478 kts 289°
2026-05-04 21:26 52.13261 -5.71106 38083 ft 478 kts 289°
2026-05-04 21:27 52.15281 -5.81351 38083 ft 477 kts 289°
2026-05-04 21:27 52.17330 -5.91649 38083 ft 476 kts 289°
2026-05-04 21:28 52.19380 -6.01908 38085 ft 475 kts 289°
2026-05-04 21:28 52.21411 -6.12164 38088 ft 475 kts 289°
2026-05-04 21:29 52.23415 -6.22450 38095 ft 476 kts 287°
2026-05-04 21:29 52.24952 -6.32897 38097 ft 476 kts 283°
2026-05-04 21:30 52.26270 -6.43499 38082 ft 476 kts 282°
2026-05-04 21:30 52.27570 -6.54101 38095 ft 475 kts 282°
2026-05-04 21:31 52.29511 -6.69993 38094 ft 475 kts 282°
2026-05-04 21:32 52.30787 -6.80525 38101 ft 475 kts 282°
2026-05-04 21:32 52.32062 -6.91128 38099 ft 475 kts 282°
2026-05-04 21:33 52.33326 -7.01726 38101 ft 474 kts 282°
2026-05-04 21:33 52.34579 -7.12308 38102 ft 473 kts 282°
2026-05-04 21:34 52.35813 -7.22828 38105 ft 473 kts 282°
2026-05-04 21:34 52.37048 -7.33431 38105 ft 473 kts 282°
2026-05-04 21:35 52.38272 -7.44032 38106 ft 473 kts 282°
2026-05-04 21:35 52.39486 -7.54644 38105 ft 473 kts 282°
2026-05-04 21:36 52.40683 -7.65182 38117 ft 473 kts 282°
2026-05-04 21:36 52.41880 -7.75804 38114 ft 473 kts 281°
2026-05-04 21:37 52.43066 -7.86427 38117 ft 473 kts 281°
2026-05-04 21:37 52.44242 -7.97053 38120 ft 473 kts 281°
2026-05-04 21:38 52.45400 -8.07618 38120 ft 473 kts 281°
2026-05-04 21:38 52.46559 -8.18263 38122 ft 473 kts 281°
2026-05-04 21:39 52.47706 -8.28900 38120 ft 473 kts 281°
2026-05-04 21:39 52.48840 -8.39501 38123 ft 470 kts 281°
2026-05-04 21:40 52.49952 -8.50003 38114 ft 469 kts 281°
2026-05-04 21:40 52.51058 -8.60558 38127 ft 468 kts 281°
2026-05-04 21:41 52.52156 -8.71098 38124 ft 468 kts 281°
2026-05-04 21:41 52.53244 -8.81643 38129 ft 468 kts 281°
2026-05-04 21:42 52.54315 -8.92120 38132 ft 468 kts 281°
2026-05-04 21:42 52.55383 -9.02671 38126 ft 467 kts 281°
2026-05-04 21:43 52.56438 -9.13201 38130 ft 466 kts 281°
2026-05-04 21:43 52.57485 -9.23728 38138 ft 466 kts 281°
2026-05-04 21:44 52.58514 -9.34182 38136 ft 466 kts 280°
2026-05-04 21:44 52.59541 -9.44712 38155 ft 466 kts 280°
2026-05-04 21:45 52.60558 -9.55244 38135 ft 465 kts 280°
2026-05-04 21:45 52.61563 -9.65763 38161 ft 464 kts 280°
2026-05-04 21:46 52.62553 -9.76207 38157 ft 459 kts 280°
2026-05-04 21:46 52.63522 -9.86531 38157 ft 458 kts 280°
2026-05-04 21:47 52.64487 -9.96920 38152 ft 459 kts 280°
2026-05-04 21:47 52.65443 -10.07318 38157 ft 458 kts 280°
2026-05-04 21:48 52.66387 -10.17686 38157 ft 456 kts 280°
2026-05-04 21:48 52.67314 -10.27971 38152 ft 456 kts 280°
2026-05-04 21:49 52.68239 -10.38326 38153 ft 456 kts 279°
2026-05-04 21:49 52.69154 -10.48683 38158 ft 456 kts 279°
2026-05-04 21:50 52.70060 -10.59043 38168 ft 456 kts 279°
2026-05-04 21:50 52.70950 -10.69338 38167 ft 456 kts 279°
2026-05-04 21:51 52.71838 -10.79706 38165 ft 456 kts 279°
2026-05-04 21:51 52.72717 -10.90075 38165 ft 456 kts 279°
2026-05-04 21:52 52.73581 -11.00389 38169 ft 456 kts 279°
2026-05-04 21:52 52.74441 -11.10749 38163 ft 454 kts 279°
2026-05-04 21:53 52.75289 -11.21067 38172 ft 453 kts 278°
2026-05-04 21:53 52.76124 -11.31381 38172 ft 452 kts 278°
2026-05-04 21:54 52.76951 -11.41698 38170 ft 452 kts 278°
2026-05-04 21:54 52.77763 -11.51944 38171 ft 452 kts 278°
2026-05-04 21:55 52.78573 -11.62273 38178 ft 452 kts 278°
2026-05-04 21:55 52.79374 -11.72597 38174 ft 452 kts 278°
2026-05-04 21:56 52.80165 -11.82921 38179 ft 452 kts 278°
2026-05-04 21:56 52.80941 -11.93178 38180 ft 452 kts 278°
2026-05-04 21:57 52.81715 -12.03513 38183 ft 452 kts 278°
2026-05-04 21:57 52.82479 -12.13846 38185 ft 452 kts 278°
2026-05-04 21:58 52.83234 -12.24183 38178 ft 452 kts 278°
2026-05-04 21:58 52.83975 -12.34441 38184 ft 451 kts 278°
2026-05-04 21:59 52.84711 -12.44773 38185 ft 451 kts 278°
2026-05-04 21:59 52.85438 -12.55104 38184 ft 451 kts 277°
2026-05-04 22:00 52.86156 -12.65433 38194 ft 451 kts 277°
2026-05-04 22:00 52.86860 -12.75701 38189 ft 451 kts 277°
2026-05-04 22:01 52.87560 -12.86033 38195 ft 451 kts 277°
2026-05-04 22:01 52.88251 -12.96371 38193 ft 451 kts 277°
2026-05-04 22:02 52.88933 -13.06710 38195 ft 451 kts 277°
2026-05-04 22:02 52.89601 -13.16989 38196 ft 451 kts 277°
2026-05-04 22:03 52.90265 -13.27337 38186 ft 451 kts 277°
2026-05-04 22:03 52.90921 -13.37697 38191 ft 452 kts 277°
2026-05-04 22:04 52.91568 -13.48071 38203 ft 452 kts 277°
2026-05-04 22:04 52.92206 -13.58440 38201 ft 452 kts 277°
2026-05-04 22:05 52.92831 -13.68745 38210 ft 452 kts 277°
2026-05-04 22:05 52.93451 -13.79126 38204 ft 452 kts 277°
2026-05-04 22:06 52.94062 -13.89515 38208 ft 452 kts 277°
2026-05-04 22:06 52.94663 -13.99890 38209 ft 452 kts 277°
2026-05-04 22:07 52.95252 -14.10200 38212 ft 452 kts 276°
2026-05-04 22:07 52.95836 -14.20588 38217 ft 452 kts 276°
2026-05-04 22:08 52.96411 -14.30977 38213 ft 452 kts 276°
2026-05-04 22:08 52.96975 -14.41366 38220 ft 452 kts 276°
2026-05-04 22:09 52.97528 -14.51690 38214 ft 452 kts 276°
2026-05-04 22:09 52.98077 -14.62091 38220 ft 452 kts 276°
2026-05-04 22:10 52.98616 -14.72491 38226 ft 452 kts 276°
2026-05-04 22:10 52.99144 -14.82891 38231 ft 452 kts 276°
2026-05-04 22:11 52.99813 -14.93195 38226 ft 451 kts 280°
2026-05-04 22:11 53.01079 -15.03402 38230 ft 450 kts 286°
2026-05-04 22:12 53.02962 -15.13331 38234 ft 450 kts 291°
2026-05-04 22:12 53.05137 -15.23083 38234 ft 450 kts 291°
2026-05-04 22:13 53.07305 -15.32775 38239 ft 450 kts 291°
2026-05-04 22:13 53.09476 -15.42541 38231 ft 450 kts 291°
2026-05-04 22:14 53.11639 -15.52322 38239 ft 450 kts 291°
2026-05-04 22:14 53.13793 -15.62115 38238 ft 450 kts 291°
2026-05-04 22:15 53.15941 -15.71925 38238 ft 450 kts 291°
2026-05-04 22:15 53.18065 -15.81673 38234 ft 450 kts 291°
2026-05-04 22:16 53.20199 -15.91508 38236 ft 450 kts 290°
2026-05-04 22:16 53.22324 -16.01355 38242 ft 451 kts 290°
2026-05-04 22:17 53.24441 -16.11216 38243 ft 451 kts 290°
2026-05-04 22:17 53.26538 -16.21025 38248 ft 451 kts 290°
2026-05-04 22:18 53.28639 -16.30902 38251 ft 451 kts 290°
2026-05-04 22:18 53.30733 -16.40794 38240 ft 451 kts 290°
2026-05-04 22:19 53.32818 -16.50696 38251 ft 451 kts 290°
2026-05-04 22:19 53.34881 -16.60536 38256 ft 451 kts 290°
2026-05-04 22:20 53.36951 -16.70454 38252 ft 451 kts 290°
2026-05-04 22:20 53.39010 -16.80379 38252 ft 450 kts 290°
2026-05-04 22:21 53.41062 -16.90315 38255 ft 450 kts 290°
2026-05-04 22:21 53.43106 -17.00261 38261 ft 451 kts 290°
2026-05-04 22:22 53.45128 -17.10153 38258 ft 450 kts 289°
2026-05-04 22:22 53.47154 -17.20111 38267 ft 450 kts 289°
2026-05-04 22:23 53.49173 -17.30082 38260 ft 450 kts 289°
2026-05-04 22:23 53.51183 -17.40061 38263 ft 450 kts 289°
2026-05-04 22:24 53.53169 -17.49972 38271 ft 450 kts 289°
2026-05-04 22:24 53.55160 -17.59964 38272 ft 450 kts 289°
2026-05-04 22:25 53.57145 -17.69971 38277 ft 450 kts 289°
2026-05-04 22:25 53.59120 -17.79977 38276 ft 450 kts 289°
2026-05-04 22:26 53.61073 -17.89929 38267 ft 450 kts 289°
2026-05-04 22:26 53.63029 -17.99949 38276 ft 449 kts 289°
2026-05-04 22:27 53.64978 -18.09974 38275 ft 450 kts 289°
2026-05-04 22:27 53.66918 -18.20013 38279 ft 450 kts 289°
2026-05-04 22:28 53.68851 -18.30068 38282 ft 450 kts 289°
2026-05-04 22:28 53.70761 -18.40054 38279 ft 450 kts 288°
2026-05-04 22:29 53.72676 -18.50123 38285 ft 450 kts 288°
2026-05-04 22:29 53.74582 -18.60199 38280 ft 449 kts 288°
2026-05-04 22:30 53.76478 -18.70270 38290 ft 449 kts 288°
2026-05-04 22:30 53.78353 -18.80284 38295 ft 449 kts 288°
2026-05-04 22:31 53.80231 -18.90362 38290 ft 449 kts 288°
2026-05-04 22:31 53.82099 -19.00453 38295 ft 449 kts 288°
2026-05-04 22:32 53.83959 -19.10554 38298 ft 449 kts 288°
2026-05-04 22:32 53.85800 -19.20599 38294 ft 449 kts 288°
2026-05-04 22:33 53.87646 -19.30728 38298 ft 449 kts 288°
2026-05-04 22:33 53.89482 -19.40865 38298 ft 449 kts 288°
2026-05-04 22:34 53.91312 -19.51017 38304 ft 449 kts 288°
2026-05-04 22:34 53.93120 -19.61101 38308 ft 449 kts 287°
2026-05-04 22:35 53.94932 -19.71269 38305 ft 449 kts 287°
2026-05-04 22:35 53.96734 -19.81444 38309 ft 449 kts 287°
2026-05-04 22:36 53.98508 -19.91636 38306 ft 449 kts 285°
2026-05-04 22:36 53.99818 -20.02039 38311 ft 450 kts 279°
2026-05-04 22:37 54.00494 -20.12632 38312 ft 451 kts 275°
2026-05-04 22:37 54.00922 -20.23204 38315 ft 451 kts 275°
2026-05-04 22:38 54.01337 -20.33851 38315 ft 451 kts 275°
2026-05-04 22:38 54.01744 -20.44503 38311 ft 451 kts 275°
2026-05-04 22:39 54.02143 -20.55162 38321 ft 451 kts 274°
2026-05-04 22:39 54.02530 -20.65742 38323 ft 451 kts 274°
2026-05-04 22:40 54.02909 -20.76401 38323 ft 451 kts 274°
2026-05-04 22:40 54.03280 -20.87062 38323 ft 451 kts 274°
2026-05-04 22:41 54.03642 -20.97729 38325 ft 451 kts 274°
2026-05-04 22:41 54.03992 -21.08323 38319 ft 451 kts 274°
2026-05-04 22:42 54.04335 -21.19013 38330 ft 452 kts 274°
2026-05-04 22:42 54.04668 -21.29696 38331 ft 452 kts 274°
2026-05-04 22:43 54.04992 -21.40384 38334 ft 452 kts 274°
2026-05-04 22:43 54.05305 -21.51002 38333 ft 452 kts 274°
2026-05-04 22:44 54.05611 -21.61697 38331 ft 452 kts 273°
2026-05-04 22:44 54.05908 -21.72408 38336 ft 453 kts 273°
2026-05-04 22:45 54.06194 -21.83129 38333 ft 453 kts 273°
2026-05-04 22:45 54.06605 -21.99146 38336 ft 453 kts 273°
2026-05-04 22:46 54.06869 -22.09878 38336 ft 453 kts 273°
2026-05-04 22:46 54.07122 -22.20601 38336 ft 453 kts 273°
2026-05-04 22:47 54.07366 -22.31333 38345 ft 453 kts 273°
2026-05-04 22:47 54.07600 -22.41993 38344 ft 453 kts 273°
2026-05-04 22:48 54.07825 -22.52725 38346 ft 453 kts 272°
2026-05-04 22:48 54.08040 -22.63456 38347 ft 453 kts 272°
2026-05-04 22:49 54.08247 -22.74186 38340 ft 453 kts 272°
2026-05-04 22:49 54.08442 -22.84858 38345 ft 453 kts 272°
2026-05-04 22:50 54.08629 -22.95597 38353 ft 453 kts 272°
2026-05-04 22:50 54.08807 -23.06343 38353 ft 453 kts 272°
2026-05-04 22:51 54.08975 -23.17087 38349 ft 453 kts 272°
2026-05-04 22:51 54.09133 -23.27835 38358 ft 453 kts 272°
2026-05-04 22:52 54.09281 -23.38511 38353 ft 453 kts 272°
2026-05-04 22:52 54.09421 -23.49268 38363 ft 453 kts 272°
2026-05-04 22:53 54.09550 -23.60024 38362 ft 453 kts 272°
2026-05-04 22:53 54.09671 -23.70784 38361 ft 453 kts 272°
2026-05-04 22:54 54.09781 -23.81464 38358 ft 453 kts 271°
2026-05-04 22:54 54.09882 -23.92222 38351 ft 453 kts 271°
2026-05-04 22:55 54.09974 -24.02989 38358 ft 454 kts 271°
2026-05-04 22:55 54.10056 -24.13760 38364 ft 454 kts 271°
2026-05-04 22:56 54.10128 -24.24457 38369 ft 454 kts 271°
2026-05-04 22:56 54.10190 -24.35225 38366 ft 454 kts 271°
2026-05-04 22:57 54.10244 -24.46004 38366 ft 454 kts 271°
2026-05-04 22:57 54.10287 -24.56776 38360 ft 454 kts 271°
2026-05-04 22:58 54.10321 -24.67556 38362 ft 454 kts 271°
2026-05-04 22:58 54.10345 -24.78263 38364 ft 454 kts 271°
2026-05-04 22:59 54.10360 -24.89045 38369 ft 454 kts 271°
2026-05-04 22:59 54.10366 -24.99830 38368 ft 454 kts 271°
2026-05-04 23:00 54.10360 -25.10615 38363 ft 454 kts 271°
2026-05-04 23:00 54.10346 -25.21329 38370 ft 454 kts 271°
2026-05-04 23:01 54.10323 -25.32114 38374 ft 455 kts 271°
2026-05-04 23:01 54.10290 -25.42905 38373 ft 455 kts 270°
2026-05-04 23:02 54.10247 -25.53697 38382 ft 455 kts 270°
2026-05-04 23:02 54.10194 -25.64491 38375 ft 455 kts 270°
2026-05-04 23:03 54.10132 -25.75221 38371 ft 455 kts 270°
2026-05-04 23:03 54.10060 -25.86014 38375 ft 455 kts 270°
2026-05-04 23:04 54.09979 -25.96814 38370 ft 455 kts 270°
2026-05-04 23:04 54.09888 -26.07619 38376 ft 455 kts 270°
2026-05-04 23:05 54.09788 -26.18351 38378 ft 455 kts 270°
2026-05-04 23:05 54.09676 -26.29142 38374 ft 455 kts 270°
2026-05-04 23:06 54.09556 -26.39949 38379 ft 455 kts 270°
2026-05-04 23:06 54.09427 -26.50749 38382 ft 455 kts 270°
2026-05-04 23:07 54.09288 -26.61480 38383 ft 455 kts 270°
2026-05-04 23:07 54.09139 -26.72273 38382 ft 455 kts 270°